This is the latest recevied weather packets stored in our database for station/object KI4HRG. If no packets are shown the sender has not sent any weather packets the latest 10 day(s).
| Time | Temp. | Humidity | Pressure | Rain* | Wind** | Luminosity | Snow |
|---|---|---|---|---|---|---|---|
| 1778127468 | 18.89° C | 99% | 1012 hPa | 1.27 mm | - | 0 W/m² | - |
| 1778127165 | 18.89° C | 99% | 1012.1 hPa | 3.05 mm | - | 0 W/m² | - |
| 1778126862 | 19.44° C | 99% | 1012 hPa | 6.1 mm | - | 0 W/m² | - |
| 1778126558 | 18.89° C | 99% | 1011.6 hPa | 4.83 mm | - | 0 W/m² | - |
| 1778126254 | 18.89° C | 99% | 1011.3 hPa | 3.05 mm | - | 0 W/m² | - |
| 1778125949 | 18.89° C | 99% | 1011 hPa | 4.32 mm | - | 0 W/m² | - |
| 1778125647 | 18.89° C | 99% | 1011.1 hPa | 6.6 mm | - | 0 W/m² | - |
| 1778125344 | 19.44° C | 99% | 1011.2 hPa | 4.83 mm | - | 0 W/m² | - |
| 1778125042 | 18.89° C | 99% | 1011.8 hPa | 1.27 mm | - | 0 W/m² | - |
| 1778124739 | 18.89° C | 99% | 1011.8 hPa | 1.78 mm | - | 0 W/m² | - |
| 1778124437 | 18.89° C | 99% | 1011.5 hPa | 3.05 mm | - | 0 W/m² | - |
| 1778124132 | 18.89° C | 99% | 1011.1 hPa | 4.32 mm | - | 0 W/m² | - |
| 1778123830 | 19.44° C | 99% | 1011.8 hPa | 4.32 mm | - | 0 W/m² | - |
| 1778123526 | 19.44° C | 99% | 1012.7 hPa | 4.83 mm | - | 0 W/m² | - |
| 1778123223 | 19.44° C | 99% | 1013 hPa | 4.83 mm | - | 0 W/m² | - |
| 1778122921 | 19.44° C | 99% | 1012.5 hPa | 7.87 mm | - | 0 W/m² | - |
| 1778122618 | 19.44° C | 99% | 1013 hPa | 10.67 mm | - | 0 W/m² | - |
| 1778122314 | 19.44° C | 99% | 1012.5 hPa | 13.21 mm | - | 0 W/m² | - |
| 1778122013 | 19.44° C | 99% | 1013.1 hPa | 8.89 mm | - | 0 W/m² | - |
| 1778121709 | 19.44° C | 99% | 1012.4 hPa | 1.78 mm | - | 0 W/m² | - |
| 1778121405 | 19.44° C | 99% | 1012.2 hPa | 0 mm | - | 0 W/m² | - |
| 1778121103 | 19.44° C | 99% | 1011.9 hPa | 4.83 mm | - | 0 W/m² | - |
| 1778120799 | 19.44° C | 99% | 1011.7 hPa | 8.89 mm | - | 0 W/m² | - |
| 1778120495 | 19.44° C | 99% | 1011.7 hPa | 3.05 mm | - | 0 W/m² | - |
| 1778120192 | 20° C | 99% | 1011.9 hPa | 0 mm | - | 0 W/m² | - |
* Rain latest hour (hover to see other rain measurements)
** Current wind speed in m/s (hover to see current wind gust speed)